sat.trackr.live / text

‹ back to catalog

STARLINK-34996

NORAD 65223 · 2025-176AB

PAYLOAD ACTIVE UNKNOWN

§ Identity

Operator
Country
US
Launch date
2025-08-14
Launch site
AFETR
Launch vehicle
Mass (kg)
RCS (m²)

Purposes: comms

External: N2YO · Heavens-Above · Gunter

§ Orbital elements

Epoch: 2026-05-25T00:50:28.690656Z

Period
93.85 min
Inclination
53.1598°
Eccentricity
0.0001315
Mean motion
15.34412095 rev/d
Perigee alt
461.8 km
Apogee alt
463.6 km
Semi-major
6,840.8 km
B*
6.6254e-4
RAAN
157.7976°
Arg perigee
89.2763°
Mean anomaly
270.8390°
Rev number
4,481

§ Raw data

STARLINK-349961 65223U 25176AB  26145.03505429  .00022083  00000+0  66254-3 0  99952 65223  53.1598 157.7976 0001315  89.2763 270.8390 15.34412095 44818

JSON: /api/v1/satellites/65223 · /tle

For live sub-satellite position, see the globe view (requires WebGL).

§ Visibility from observer

Set your observer location to see the next 7 days of passes ≥ 10°. The values pass through the URL so the page stays shareable.

No JS? Fill the form by hand. The geolocation button needs JavaScript.